Погода в Егиндыбулаке

Казахстан     49°47′10″N   76°23′08″E
темп.,
°C
ветер,
м/с
пор.,
м/с
влажн.,
%
обл.,
%
осадки,
мм/ч
давл.,
гПа
погр.,
м
19 января, ср
ср1900:00−8всв2496100 1.1 1028168
03:00−9всв2596100 0.3 1027167
06:00−9св2696100 0.9 1026297
09:00−9ссв3896100 0.8 1026382
12:00−9св4893100 1.6 1026433
15:00−9св4793100 0.2 1026425
18:00−15св22100100 0.2 103010
21:00−19ссв11100100 0.0 10329
20 января, чт
чт2000:00−21ю11100100 0.1 10349
03:00−21ю22100100 0.0 10359
06:00−21ююв2210093 0.0 10369
09:00−21ююв2210073 0.0 103710
12:00−13юв23925 0.0 103576
15:00−11юв22885 0.0 103479
18:00−17вюв22955 0.0 10359
21:00−19ююв339937 0.0 103615
21 января, пт
пт2100:00−21ююв339943 0.0 103616
03:00−21юв32965 0.0 103515
06:00−22ююв32975 0.0 103415
09:00−22юв229725 0.0 103414
12:00−13вюв22865 0.0 103069
15:00−12всв23875 0.0 102786
18:00−19вюв11986 0.0 10309
21:00−22юв2210038 0.0 10329
22 января, сб
сб2200:00−24юв229925 0.0 103311
03:00−25юв229841 0.0 103411
06:00−25ююв22975 0.0 103510
09:00−24юв229647 0.0 103514
12:00−14вюв228455 0.0 103269
15:00−11вюв2288100 0.0 103049
18:00−18юв229571 0.0 10339
21:00−20юв339977 0.0 103517
23 января, вс
вс2300:00−22ююв3210076 0.0 103613
03:00−21ююв3393100 0.0 103515
06:00−21ююв3289100 0.0 103514
09:00−22ю328877 0.0 103614
12:00−12ююв2275100 0.0 103347
15:00−10в1179100 0.0 103212
18:00−15в1186100 0.0 10349
21:00−16юв1190100 0.0 10359